Location: Jodlow
(50.1500°N, 16.7500°E)
Time: 00:11:19
(UTC+02:00)

DUCHIFAT 1 - Visible Passes

Search period start: 01 April 2023 00:00
Search period end: 11 April 2023 00:00
Orbit: 569 x 586 km, 98.1° (Epoch: 31 March)

Date Brightness Start Highest point End Pass type
(mag) Time Alt. Az. Time Alt. Az. Time Alt. Az.
01 Apr ? 03:25:34 10° NE 03:28:56 24° E 03:29:56 22° ESE visible
01 Apr ? 05:00:30 10° N 05:04:17 37° WNW 05:06:13 23° WSW visible
02 Apr ? 03:29:36 10° NE 03:33:04 26° E 03:34:14 23° ESE visible
02 Apr ? 05:04:39 10° N 05:08:22 34° WNW 05:10:31 20° WSW visible
03 Apr ? 03:33:36 10° NE 03:37:10 29° E 03:38:30 24° SE visible
03 Apr ? 05:08:47 10° N 05:12:24 31° WNW 05:14:46 18° WSW visible
04 Apr ? 03:37:35 10° NNE 03:41:14 31° E 03:42:43 24° SE visible
04 Apr ? 05:12:53 10° N 05:16:26 29° WNW 05:19:00 15° WSW visible
05 Apr ? 03:41:33 10° NNE 03:45:17 34° E 03:46:56 24° SE visible
05 Apr ? 05:16:58 10° N 05:20:25 27° WNW 05:23:12 14° WSW visible
06 Apr ? 03:45:29 10° NNE 03:49:17 37° E 03:51:05 24° SSE visible
06 Apr ? 05:21:01 10° N 05:24:23 25° WNW 05:27:22 12° WSW visible
07 Apr ? 03:49:25 10° NNE 03:53:16 40° E 03:55:14 24° SSE visible
07 Apr ? 05:25:03 10° N 05:28:18 23° WNW 05:31:30 10° WSW visible
08 Apr ? 03:53:18 10° NNE 03:57:13 44° E 03:59:21 23° SSE visible
08 Apr ? 05:29:04 10° NNW 05:32:11 22° WNW 05:35:18 10° WSW visible
09 Apr ? 03:57:10 10° NNE 04:01:08 48° E 04:03:25 22° SSE visible
09 Apr ? 05:33:03 10° NNW 05:36:03 20° WNW 05:39:03 10° WSW visible
10 Apr ? 04:01:01 10° NNE 04:05:01 53° E 04:07:28 21° S visible
10 Apr ? 05:37:01 10° NNW 05:39:53 19° WNW 05:42:45 10° WSW visible
